Simultaneous Nadir Overpasses (SNOs) Predictions

Prediction of SNOs between NOAA-20 and LANDSAT-8 Satellite Orbit:

Table of predicted SNOs for the next 14.0 days since TLE Epoch: 5/28/2022
Index Date (NOAA-20) Time (NOAA-20) Lat,Lon (NOAA-20) SZA (NOAA-20 ) Date (LANDSAT-8) Time (LANDSAT-8) Lat,Lon (LANDSAT-8) SZA (LANDSAT-8 ) Distance(km) Time Diff (sec)
1 05/29/2022 14:16:04 -70.19, 142.28 131.56 05/29/2022 14:17:08 -70.22, 142.34 131.54 3.27 64
2 05/29/2022 15:06:48 70.07, -50.22 48.31 05/29/2022 15:06:36 70.06, -50.23 48.30 1.03 12
3 05/29/2022 15:57:23 -69.62, 117.77 132.16 05/29/2022 15:56:11 -69.68, 116.86 132.08 35.75 72
4 06/01/2022 06:32:57 -70.17,-101.91 131.96 06/01/2022 06:33:40 -70.15,-101.89 131.99 3.09 43
5 06/01/2022 07:23:41 70.05, 65.58 47.91 06/01/2022 07:23:07 70.04, 65.61 47.90 1.58 34
6 06/03/2022 21:59:23 70.98,-154.76 48.55 06/03/2022 22:00:30 70.88,-152.56 48.39 80.81 67
7 06/03/2022 22:49:50 -70.10, 13.96 132.37 06/03/2022 22:50:12 -70.11, 13.94 132.36 1.57 22
8 06/03/2022 23:40:34 69.99,-178.55 47.51 06/03/2022 23:39:39 70.01,-178.56 47.53 2.50 55
9 06/06/2022 14:16:02 70.18, -37.70 47.43 06/06/2022 14:17:14 70.17, -37.74 47.41 1.84 72
10 06/06/2022 15:06:44 -70.09, 129.75 132.67 06/06/2022 15:06:44 -70.07, 129.75 132.70 2.52 0
11 06/06/2022 15:57:25 69.82, -62.53 47.04 06/06/2022 15:56:12 69.90, -62.84 47.14 15.08 73
12 06/09/2022 06:32:56 70.18, 78.07 47.18 06/09/2022 06:33:45 70.16, 78.12 47.15 2.82 49
13 06/09/2022 07:23:37 -70.03,-114.38 132.98 06/09/2022 07:23:15 -70.06,-114.39 132.95 3.27 22



Historial Predications of SNOs between NOAA-20 and LANDSAT-8
